Regional Weather Roundup
Issued by NWS

Home | Current Version | Previous Version | Graphics & Text | Print | Product List | Glossary On
Versions: 1 2 3 4 5 6 7 8 9 10 11 12 13 14 15 16 17 18 19 20 21 22 23 24 25 26 27 28 29 30 31 32 33 34 35 36 37 38 39 40 41 42 43 44 45 46 47 48 49 50
000
ASUS43 KLOT 092108
RWRIL

ILLINOIS REGIONAL WEATHER ROUNDUP
NATIONAL WEATHER SERVICE CHICAGO/ROMEOVILLE IL
300 PM CST TUE FEB 09 2016

NOTE: "FAIR" INDICATES FEW OR NO CLOUDS BELOW 12,000 FEET WITH NO
SIGNIFICANT WEATHER AND/OR OBSTRUCTIONS TO VISIBILITY.

* THESE STATIONS ARE NOT UNDER NWS QUALITY CONTROL. THEY ALSO MAY NOT
  REPORT WEATHER SUCH AS PRECIPITATION OR FOG.

ILZ001-002-007-009-015-016-024-092200-
NORTHWEST ILLINOIS

CITY           SKY/WX    TMP DP  RH WIND       PRES   REMARKS
MOLINE         PTSUNNY   18   6  59 W23G30    29.98S WCI   0
STERLING*      CLOUDY    19   7  58 W9G23     29.90R WCI   9
SAVANNA*       CLOUDY    18   7  61 NW14      29.94S WCI   4
$$

ILZ003-004-008-010-011-017-018-092200-
NORTH CENTRAL ILLINOIS

CITY           SKY/WX    TMP DP  RH WIND       PRES   REMARKS
ROCKFORD       FLURRIES  18   6  59 NW15G24   29.91R WCI   4
FREEPORT*      CLOUDY    15   8  72 NW16G25   29.92R HAZE    WCI  -1
ROCHELLE*      LGT SNOW  17   8  70 NW17G23   29.90R WCI   1
DE KALB*       CLOUDY    16   8  71 NW16      29.87R WCI   1
$$

ILZ005-006-012>014-019>023-092200-
NORTHEAST ILLINOIS

CITY           SKY/WX    TMP DP  RH WIND       PRES   REMARKS
CHICAGO-OHARE  FLURRIES  17   7  64 NW17      29.85R WCI   1
CHICAGO-MIDWAY FLURRIES  19   6  57 NW13      29.86R WCI   6
AURORA         CLOUDY    18   8  65 NW18      29.88R WCI   2
LANSING*       CLOUDY    19   8  63 NW10G20   29.86R WCI   7
JOLIET*        CLOUDY    19   8  61 NW7G18    29.89R WCI  10
WAUKEGAN       CLOUDY    17   6  62 NW10G17   29.84R WCI   5
DUPAGE AIRPORT MIX PCPN  16   5  62 NW18G24   29.86R WCI   0
KANKAKEE*      FLURRIES  18  10  70 NW14G22   29.89R WCI   4
WHEELING       CLOUDY    17   7  64 NW14      29.87R WCI   3
MORRIS*        CLOUDY    18   8  67 NW17G24   29.88R WCI   2
ROMEOVILLE*    FLURRIES  17   7  65 NW16      29.87R WCI   2
NORTHERLY ISL    N/A     19   9  65 NW10        N/A  WCI   8
$$

LMZ740>746-092200-
SOUTHERN LAKE MICHIGAN

STATION/POSITION SKY/WX   TEMP    WIND        PRES    VSBY  WAVE
                          AIR SEA DIR/SP/G                  HT/PER
                          (F)     (DEG/KT/KT) (MB)    (MI)  (FT/S)
HARRISON CRIB              19     300/ 16/ 19   N/A
BURNHAM HARBOR             18     310/ 12/ 15   N/A
CALUMET HARBOR             19     270/  9/ 15 1009.8R
BURNS HARBOR               20     320/ 12/ 22 1010.2R
MICHIGAN CITY              20     280/ 20/ 24   N/A
$$

ILZ025>027-034>036-040-047-049-050-058-095>099-092200-
WEST-CENTRAL ILLINOIS

CITY           SKY/WX    TMP DP  RH WIND       PRES   REMARKS
QUINCY         MOSUNNY   19   8  62 NW20      30.04R WCI   3
GALESBURG*     CLOUDY    16   9  75 W23       29.98R WCI  -2
MACOMB*        CLOUDY    18  11  75 NW24G32   30.03R WCI   0
JACKSONVILLE*  CLOUDY    21  11  67 NW21G30   30.01R WCI   5
PITTSFIELD*    PTSUNNY   19  10  68 NW15      30.04R WCI   5
$$

ILZ028>032-037-038-041>044-048-051>054-059>061-092200-
CENTRAL ILLINOIS

CITY           SKY/WX    TMP DP  RH WIND       PRES   REMARKS
PONTIAC        CLOUDY    19  12  72 NW20G25   29.92R WCI   3
BLOOMINGTON    LGT SNOW  18  12  77 NW20      29.92R WCI   2
DECATUR        LGT SNOW  20  12  71 W13G22    29.95R WCI   7
PEORIA         FLURRIES  19   7  59 NW17G23   29.96R WCI   4
LACON*         CLOUDY    19   7  61 NW18G24   29.93S WCI   3
LINCOLN*       CLOUDY    20  11  66 W10G21    29.96R WCI   9
SPRINGFIELD    LGT SNOW  20  10  65 NW22G30   29.98R WCI   3
TAYLORVILLE    CLOUDY    19  10  68 W20G28    29.98R WCI   4
$$

ILZ033-039-045-046-055>057-062-063-092200-
EAST-CENTRAL ILLINOIS

CITY           SKY/WX    TMP DP  RH WIND       PRES   REMARKS
CHAMPAIGN      FLURRIES  19  11  70 NW21      29.91R WCI   3
RANTOUL*       FLURRIES  21  12  69 NW21G29   29.90R WCI   5
MATTOON        LGT SNOW  19  11  70 NW16      29.93R WCI   4
PARIS*         LGT SNOW  19  14  79 W17       29.92R WCI   4
$$

ILZ079-100>102-092200-
SOUTHWEST ILLINOIS

CITY           SKY/WX    TMP DP  RH WIND       PRES   REMARKS
ALTON          CLOUDY    19  10  68 NW21      30.04R WCI   3
BELLEVILLE     MOSUNNY   21  14  73 NW17      30.03R WCI   7
CAHOKIA*       CLOUDY    24  11  57 NW20      30.05R WCI  10
SPARTA*        CLOUDY    21  12  67 NW8G17    30.04S WCI  12
$$

ILZ064>066-069>071-074>076-080>082-084>086-088>090-092>094-092200-
SOUTH-CENTRAL ILLINOIS

CITY           SKY/WX    TMP DP  RH WIND       PRES   REMARKS
CARBONDALE     CLOUDY    22  11  62 NW17G23   30.04R WCI   8
CAIRO*         FLURRIES  24  18  77 NW9       30.05R WCI  15
EFFINGHAM*     LGT SNOW  20  16  82 W18G24    29.98R WCI   5
MARION         CLOUDY    23  12  63 NW13G18   30.04R WCI  11
MT. VERNON     CLOUDY    19   9  63 W9G21     30.01R WCI   9
CENTRALIA*     CLOUDY    21  13  71 NW21      30.00R WCI   6
SALEM*         CLOUDY    22  13  69 NW16G25   30.00R WCI   8
METROPOLIS*    CLOUDY    24  18  77 NW13G20   30.04R WCI  12
$$

ILZ067-068-072-073-078-083-087-091-092200-
SOUTHEAST ILLINOIS

CITY           SKY/WX    TMP DP  RH WIND       PRES   REMARKS
LAWRENCEVILLE  LGT SNOW  21  13  71 W22       29.96R WCI   5
FLORA*         FLURRIES  22  15  72 W16G23    29.99R WCI   9
FAIRFIELD*     LGT SNOW  21  13  70 W12       29.99R WCI   9
HARRISBURG*    CLOUDY    22  14  73 NW17G23   30.02R HAZE    WCI   7
ROBINSON*      LGT SNOW  20  13  75 NW16G23   29.96R WCI   6
CARMI*         LGT SNOW  22  16  79 W20G25    30.00R WCI   6
$$

ABBREVIATIONS USED IN REMARKS
   TC - TEMPERATURE IN CELSIUS
  WCI - WIND CHILL INDEX
   HX - HEAT INDEX
  VSB - VISIBILITY
$$




USA.gov is the U.S. government's official web portal to all federal, state and local government web resources and services.